[[{"header":{"parameterUnit":"m.s-1","parameterCategory":1,"la1":30.2991,"la2":30.254,"lo1":-89.0895,"lo2":-89.0444,"dy":0.0017,"dx":0.0017,"nx":28,"ny":28,"refTime":"2025-06-03T09:00:00:Z","depth":0,"parameterNumber":2,"parameterNumberName":"U-component_of_WINDS"},"data":[0,0,0,0,0,0,0,0,0,0,0,0,0,0,0,0,0,0,0,0,0,0,0,0,0,0,0,0,0,0,0,0,0,0,0,0,0,0,0,0,0,0,0,0,0,0,0,0,0,0,0,0,0,0,0,0,0,0,-6.0278,-6.0279,0,-6.03,-6.03,-6.03,-6.0199,-6.0196,-6.0193,-6.019,-6.0212,-6.0216,-6.0219,0,0,0,0,0,0,0,0,0,0,0,0,0,-6.0152,-6.0155,-6.0278,-6.0279,-6.0279,-6.03,-6.03,-6.03,-6.0199,-6.0195,-6.0192,-6.0188,-6.0211,-6.0215,-6.0219,0,0,0,0,0,0,0,0,0,0,0,0,0,-6.0194,-6.0156,-6.0278,-6.0231,-6.0227,-6.03,-6.03,-6.03,-6.02,-6.0195,-6.0191,-6.0187,-6.021,-6.0215,-6.022,-6.0339,0,0,-6.0235,-6.0237,0,0,0,0,0,0,0,0,-6.0191,-6.0198,-6.0238,-6.0234,-6.023,-6.0242,-6.0263,-6.0313,-6.0201,-6.021,-6.019,-6.0185,-6.0226,-6.0229,-6.0243,-6.0341,-6.0341,-6.0236,-6.0239,-6.0241,-6.0242,0,0,0,0,0,0,0,-6.0189,-6.0197,-6.0287,-6.0238,-6.0234,-6.0209,-6.021,-6.0273,-6.0243,-6.0209,-6.0202,-6.0206,-6.0223,-6.0238,-6.0243,-6.0342,-6.0236,-6.024,-6.0243,-6.0245,-6.054,-6.0545,0,0,0,0,0,0,-6.0192,-6.0195,-6.0286,-6.0287,-6.0199,-6.0215,-6.0216,-6.0243,-6.0242,-6.0237,-6.0209,-6.0201,-6.0232,-6.0237,-6.0243,-6.0384,-6.0241,-6.0246,-6.0248,-6.0535,-6.0541,-6.0546,0,0,0,0,0,0,-6.0189,-6.0201,-6.0285,-6.0239,-6.0248,-6.0222,-6.0252,-6.0245,-6.0261,-6.0242,-6.0236,-6.0231,-6.0229,-6.0236,-6.0317,-6.0383,-6.0248,-6.0252,-6.053,-6.0537,-6.0544,-6.0666,0,0,0,0,0,0,-6.0186,-6.0201,-6.0245,-6.0241,-6.0251,-6.0358,-6.0256,-6.0249,-6.0269,-6.0258,-6.026,-6.0256,-6.0226,-6.031,-6.0322,-6.0388,-6.0256,-6.0524,-6.0533,-6.0542,-6.0656,-6.0676,-6.0694,0,0,0,0,0,-6.0182,-6.0278,-6.0248,-6.0259,-6.0306,-6.0362,-6.0368,-6.033,-6.0275,-6.032,-6.0308,-6.0256,-6.0374,-6.0319,-6.0331,-6.04,-6.0519,-6.053,-6.0541,-6.0647,-6.0672,-6.0693,0,0,0,0,0,0,-6.0291,-6.0277,-6.0243,-6.0341,-6.0353,-6.0345,-6.04,-6.0358,-6.0386,-6.0375,-6.0328,-6.0329,-6.0418,-6.0417,-6.0355,-6.0516,-6.0437,-6.0451,-6.0514,-6.0537,-6.0556,-6.0554,-6.0261,0,0,0,0,0,-6.0326,-6.0372,-6.0358,-6.0446,-6.0454,-6.0426,-6.0449,-6.042,-6.0431,-6.0436,-6.0429,-6.0443,-6.0483,-6.051,-6.0546,-6.0655,-6.0655,-6.0709,-6.0728,-6.0744,-6.0756,-6.0815,-6.0839,-6.0582,-6.0582,-6.0582,0,0,-6.0399,-6.0398,-6.0429,-6.0467,-6.0474,-6.0523,-6.0431,-6.0487,-6.0523,-6.0444,-6.0519,-6.0516,-6.0528,-6.0624,-6.0666,-6.0626,-6.0827,-6.0758,-6.077,-6.0774,-6.0829,-6.0853,-6.0875,-6.0589,-6.0588,-6.0587,0,0,-6.0558,-6.0562,-6.0635,-6.0644,-6.0655,-6.0636,-6.0654,-6.0653,-6.0647,-6.0723,-6.0664,-6.0708,-6.0777,-6.0788,-6.0803,-6.0969,-6.0923,-6.0983,-6.1082,-6.114,-6.116,-6.1178,-6.1238,-6.126,-6.0995,-6.0995,-6.0996,0,-6.0648,-6.0719,-6.0679,-6.0739,-6.0758,-6.0689,-6.0764,-6.0774,-6.0797,-6.0812,-6.0767,-6.0854,-6.0857,-6.0955,-6.0996,-6.101,-6.103,-6.0981,-6.1161,-6.1178,-6.1194,-6.125,-6.1273,-6.1003,-6.1002,-6.1001,-6.1,0,-6.083,-6.0881,-6.0939,-6.0963,-6.0988,-6.1056,-6.1026,-6.1057,-6.1026,-6.1013,-6.1091,-6.1093,-6.1128,-6.115,-6.112,-6.1245,-6.1219,-6.1169,-6.1088,-6.1227,-6.1279,-6.13,-6.1013,-6.101,-6.1008,-6.1006,0,0,-6.1055,-6.1057,-6.1079,-6.109,-6.1098,-6.1137,-6.1202,-6.1237,-6.1265,-6.1283,-6.1337,-6.1399,-6.1352,-6.137,-6.1341,-6.1392,-6.1524,-6.1335,-6.1334,-6.137,-6.1663,-6.17,-6.1726,-6.1494,-6.1498,-6.1501,-6.1662,0,-6.1211,-6.1321,-6.1288,-6.14,-6.1447,-6.1383,-6.144,-6.1452,-6.1442,-6.1481,-6.147,-6.1515,-6.145,-6.146,-6.1508,-6.1498,-6.1582,-6.1486,-6.1544,-6.1547,-6.1542,-6.1753,-6.1793,-6.1944,-6.1682,-6.1685,-6.1688,0,-6.1406,-6.1433,-6.155,-6.1552,-6.157,-6.1622,-6.1652,-6.169,-6.1703,-6.1692,-6.1713,-6.1674,-6.1739,-6.166,-6.1749,-6.1684,-6.1706,-6.1706,-6.1711,-6.1714,-6.1625,-6.1762,-6.1991,-6.2014,-6.1719,-6.1717,-6.1714,0,-6.156,-6.1625,-6.1703,-6.1715,-6.1719,-6.1757,-6.176,-6.1769,-6.1792,-6.1819,-6.1834,-6.1869,-6.1887,-6.1915,-6.1887,-6.1832,-6.1982,-6.1899,-6.1975,-6.1976,-6.2008,-6.2007,-6.2244,-6.2024,-6.2024,-6.2023,-6.2023,0,-6.1736,-6.181,-6.1773,-6.1821,-6.1902,-6.1864,-6.1946,-6.1942,-6.1951,-6.1998,-6.1946,-6.1991,-6.1952,-6.1994,-6.1973,-6.2051,-6.206,-6.2053,-6.2047,-6.2058,-6.2059,-6.2071,-6.206,-6.2029,-6.2028,-6.2027,-6.2026,0,-6.1921,-6.1898,-6.198,-6.1978,-6.1979,-6.2039,-6.2037,-6.2083,-6.207,-6.213,-6.2142,-6.2122,-6.217,-6.2145,-6.2194,-6.218,-6.2281,-6.226,-6.2276,-6.2271,-6.2348,-6.2341,-6.2601,-6.2634,-6.2393,-6.2395,-6.2397,0,-6.2034,-6.209,-6.2094,-6.2122,-6.213,-6.2175,-6.2199,-6.2164,-6.2192,-6.2212,-6.2255,-6.2298,-6.233,-6.241,-6.24,-6.2437,-6.2417,-6.2506,-6.2422,-6.2432,-6.2419,-6.2415,-6.2421,-6.2522,-6.2525,-6.2528,-6.2529,0,-6.2239,-6.2226,-6.2263,-6.2297,-6.2328,-6.2353,-6.2373,-6.2399,-6.2365,-6.2399,-6.2447,-6.2472,-6.2523,-6.2566,-6.26,-6.2604,-6.2562,-6.2556,-6.2576,-6.2587,-6.2594,-6.2592,-6.2322,-6.255,-6.2548,-6.2546,-6.2545,-6.2544,-6.2392,-6.2439,-6.2449,-6.2493,-6.2505,-6.2526,-6.2569,-6.2562,-6.2601,-6.2639,-6.2617,-6.2673,-6.2687,-6.2727,-6.2737,-6.2781,-6.2746,-6.2774,-6.2781,-6.2789,-6.2799,-6.2588,-6.2787,-6.2787,-6.2786,-6.2785,-6.2785,0,-6.2594,-6.2598,-6.2638,-6.2669,-6.2704,-6.2662,-6.2683,-6.2715,-6.2765,-6.2781,-6.2815,-6.2871,-6.2914,-6.2908,-6.2947,-6.2984,-6.2966,-6.2996,-6.2992,-6.2994,-6.2828,-6.2807,-6.301,-6.301,-6.301,-6.301,-6.301,-6.301,-6.2703,-6.278,-6.2769,-6.2852,-6.2856,-6.2911,-6.2927,-6.2947,-6.2959,-6.3024,-6.306,-6.3056,-6.3064,-6.3103,-6.3141,-6.3139,-6.3156,-6.3193,-6.3183,-6.3028,-6.3006,-6.2984,-6.2965,-6.3197,-6.3197,-6.3345,-6.3346,-6.3347]},{"header":{"parameterUnit":"m.s-1","parameterCategory":1,"la1":30.2991,"la2":30.254,"lo1":-89.0895,"lo2":-89.0444,"dy":0.0017,"dx":0.0017,"nx":28,"ny":28,"refTime":"2025-06-03T09:00:00:Z","depth":0,"parameterNumber":3,"parameterNumberName":"V-component_of_WINDS"},"data":[0,0,0,0,0,0,0,0,0,0,0,0,0,0,0,0,0,0,0,0,0,0,0,0,0,0,0,0,0,0,0,0,0,0,0,0,0,0,0,0,0,0,0,0,0,0,0,0,0,0,0,0,0,0,0,0,0,0,2.2658,2.2658,0,2.2708,2.2708,2.2709,2.28,2.2802,2.2803,2.2805,2.2851,2.285,2.285,0,0,0,0,0,0,0,0,0,0,0,0,0,2.2636,2.2636,2.2658,2.2658,2.2659,2.2708,2.2708,2.2709,2.28,2.2802,2.2804,2.2806,2.2851,2.285,2.285,0,0,0,0,0,0,0,0,0,0,0,0,0,2.2661,2.2636,2.2657,2.271,2.2715,2.2708,2.2708,2.2709,2.2799,2.2802,2.2804,2.2807,2.2851,2.285,2.285,2.2793,0,0,2.2848,2.2847,0,0,0,0,0,0,0,0,2.266,2.2662,2.2702,2.2706,2.2712,2.2751,2.2718,2.2737,2.2799,2.2767,2.2805,2.2808,2.2815,2.2817,2.2821,2.2795,2.2797,2.2848,2.2847,2.2847,2.2847,0,0,0,0,0,0,0,2.2658,2.266,2.2677,2.2702,2.2709,2.273,2.2736,2.2722,2.2775,2.277,2.2777,2.2782,2.2818,2.2821,2.2822,2.2798,2.2848,2.2847,2.2847,2.2846,2.2729,2.2726,0,0,0,0,0,0,2.2649,2.2658,2.2676,2.2679,2.2692,2.2728,2.2735,2.2735,2.2776,2.2785,2.278,2.2786,2.2821,2.2823,2.2824,2.2761,2.2847,2.2846,2.2846,2.2732,2.2728,2.2725,0,0,0,0,0,0,2.2648,2.265,2.2674,2.2671,2.2675,2.2726,2.2725,2.2735,2.2738,2.2783,2.2793,2.2773,2.2823,2.2825,2.2801,2.2764,2.2846,2.2846,2.2735,2.2731,2.2727,2.2633,0,0,0,0,0,0,2.2647,2.2649,2.2629,2.2669,2.2675,2.265,2.2723,2.2734,2.2738,2.2746,2.2779,2.2787,2.2825,2.2801,2.28,2.2764,2.2845,2.2738,2.2733,2.2728,2.2639,2.2626,2.2614,0,0,0,0,0,2.2646,2.2599,2.2627,2.2629,2.2651,2.2648,2.2651,2.2697,2.2734,2.2714,2.2743,2.2786,2.2768,2.2798,2.2797,2.2761,2.2741,2.2734,2.2729,2.2645,2.2629,2.2615,0,0,0,0,0,0,2.255,2.2605,2.2637,2.2602,2.262,2.2663,2.2638,2.2678,2.2684,2.2692,2.2748,2.2754,2.2722,2.2739,2.2771,2.2709,2.2762,2.2755,2.2698,2.2683,2.2671,2.2666,2.2845,0,0,0,0,0,2.2525,2.2519,2.2567,2.2531,2.2539,2.2587,2.2587,2.2622,2.2642,2.2649,2.2676,2.2692,2.2691,2.2688,2.2689,2.2643,2.2651,2.2618,2.2605,2.2595,2.2588,2.2565,2.255,2.2705,2.2705,2.2705,0,0,2.2472,2.2502,2.2494,2.2513,2.2531,2.2522,2.2593,2.258,2.2574,2.2647,2.2626,2.2646,2.2668,2.2633,2.2618,2.2646,2.2547,2.2587,2.2578,2.2577,2.2557,2.2542,2.2529,2.2701,2.2702,2.2702,0,0,2.2372,2.2394,2.2367,2.2384,2.2412,2.2445,2.2438,2.2476,2.2493,2.2474,2.2528,2.2521,2.2517,2.253,2.2536,2.2444,2.2484,2.2443,2.2376,2.2353,2.2341,2.2331,2.2297,2.2284,2.2436,2.2436,2.2435,0,2.2302,2.2294,2.2347,2.2333,2.2339,2.2407,2.2379,2.2393,2.2418,2.242,2.2451,2.2448,2.2468,2.2437,2.2414,2.2417,2.2411,2.2438,2.2339,2.2329,2.232,2.2288,2.2275,2.243,2.2431,2.2432,2.2432,0,2.2207,2.22,2.2174,2.2199,2.2203,2.2181,2.2231,2.2228,2.2263,2.2292,2.2271,2.2297,2.2305,2.23,2.2333,2.2274,2.229,2.2329,2.2383,2.2299,2.227,2.2258,2.2423,2.2425,2.2426,2.2428,0,0,2.2044,2.2102,2.2091,2.2104,2.214,2.2135,2.2117,2.2126,2.2122,2.2138,2.2123,2.2119,2.2157,2.2163,2.2199,2.2179,2.2103,2.2221,2.2222,2.2197,2.2039,2.2007,2.1992,2.2131,2.2129,2.2127,2.2036,0,2.195,2.1924,2.1973,2.1934,2.1928,2.1994,2.1978,2.1997,2.2025,2.2022,2.2052,2.2048,2.2098,2.2103,2.2086,2.2116,2.2072,2.2123,2.2116,2.2115,2.2106,2.1978,2.1944,2.1857,2.2025,2.2024,2.2022,0,2.1837,2.185,2.181,2.1851,2.185,2.1835,2.1848,2.1846,2.1869,2.1891,2.19,2.1942,2.1926,2.198,2.1958,2.1992,2.1992,2.2006,2.2004,2.2003,2.2062,2.1972,2.1831,2.1817,2.2005,2.2006,2.2008,0,2.1721,2.1728,2.1706,2.1715,2.1761,2.1749,2.1767,2.1794,2.1797,2.1809,2.1811,2.182,2.1823,2.1829,2.1872,2.1908,2.1844,2.1902,2.186,2.1858,2.1841,2.1841,2.1696,2.1844,2.1844,2.1845,2.1845,0,2.161,2.1584,2.1655,2.1641,2.1613,2.167,2.164,2.1665,2.1688,2.168,2.1737,2.1727,2.1786,2.1782,2.1816,2.1792,2.1794,2.1809,2.1818,2.1803,2.1801,2.1802,2.1809,2.1841,2.1842,2.1843,2.1843,0,2.1475,2.1522,2.1502,2.1549,2.156,2.1537,2.1576,2.1565,2.1597,2.1585,2.1585,2.1635,2.1634,2.1679,2.1685,2.1708,2.1669,2.1689,2.1661,2.1667,2.1622,2.1625,2.1471,2.1454,2.1613,2.1612,2.1611,0,2.1401,2.1382,2.1427,2.1427,2.1443,2.1441,2.1445,2.1501,2.1502,2.1529,2.1514,2.1518,2.1524,2.1519,2.1554,2.156,2.158,2.1526,2.1581,2.1567,2.1578,2.1578,2.1576,2.1513,2.1511,2.151,2.1508,0,2.1263,2.1288,2.1293,2.1306,2.131,2.1322,2.1338,2.1334,2.1395,2.1394,2.1395,2.1399,2.1408,2.1411,2.1424,2.1441,2.1484,2.1492,2.1482,2.1465,2.1449,2.1456,2.1628,2.1494,2.1495,2.1497,2.1497,2.1498,2.1155,2.1142,2.1172,2.1176,2.1195,2.1209,2.12,2.1233,2.1235,2.1248,2.128,2.1275,2.13,2.1323,2.1337,2.1333,2.1359,2.1345,2.1342,2.1337,2.1328,2.1451,2.1335,2.1336,2.1336,2.1337,2.1337,0,2.1019,2.1043,2.1046,2.1068,2.1071,2.1114,2.1135,2.1133,2.1129,2.115,2.1156,2.1157,2.116,2.1197,2.1204,2.1194,2.1214,2.1194,2.1194,2.1197,2.1304,2.1311,2.1178,2.1178,2.1178,2.1178,2.1178,2.1178,2.0949,2.0929,2.0957,2.0947,2.0971,2.0968,2.0976,2.0989,2.1006,2.1005,2.1009,2.1034,2.1061,2.1072,2.1076,2.1087,2.1086,2.1059,2.1076,2.1175,2.119,2.1205,2.1211,2.1059,2.1059,2.097,2.0969,2.0968]}]]